Regional Weather Roundup
Issued by NWS

Home | Current Version | Previous Version | Text Only | Print | Product List | Glossary On
Versions: 1 2 3 4 5 6 7 8 9 10 11 12 13 14 15 16 17 18 19 20 21 22 23 24 25 26 27 28 29 30 31 32 33 34 35 36 37 38 39 40 41 42 43 44 45 46 47 48 49 50
351
ASUS43 KLSX 160407
RWRMO

WEATHER SUMMARY FOR MISSOURI
NATIONAL WEATHER SERVICE SPRINGFIELD MO
1100 PM CDT TUE AUG 15 2017

NOTE: "FAIR" INDICATES FEW OR NO CLOUDS BELOW 12,000 FEET WITH NO
       SIGNIFICANT WEATHER AND/OR OBSTRUCTIONS TO VISIBILITY.
       CURRENT SKY AND/OR WEATHER CONDITIONS ARE NOT AVAILABLE FOR
       CHILLICOTHE AND FARMINGTON.

MOZ001>031-035>038-043-044-053-054-160500-
...NORTHERN AND WESTERN MISSOURI...

CITY           SKY/WX    TMP DP  RH WIND       PRES   REMARKS
KANSAS CTY INT CLOUDY    78  70  76 SE8       29.88S
KANSAS C DTWN  CLEAR     82  72  71 SE7       29.86F
LEE`S SUMMIT   CLOUDY    76  72  87 SE5       29.89S
ST JOSEPH      CLOUDY    78  72  81 SE7       29.87S
CHILLICOTHE      N/A     72  70  93 CALM      29.90R
KIRKSVILLE     CLEAR     71  67  87 NE5       29.93R

$$
MOZ066>068-077>081-088>096-101>105-160500-
...SOUTHWEST MISSOURI...

CITY           SKY/WX    TMP DP  RH WIND       PRES   REMARKS
SPRINGFIELD    CLOUDY    78  74  87 SE9       29.88F
JOPLIN         LGT RAIN  76  75  97 S10       29.88R
BRANSON        CLOUDY    75  73  94 SE7       29.93R

$$
MOZ032>034-039>042-045>050-055>058-069>072-160500-
...CENTRAL MISSOURI...

CITY           SKY/WX    TMP DP  RH WIND       PRES   REMARKS
COLUMBIA       CLOUDY    77  70  79 SE6       29.91S
JEFFERSON CITY PTCLDY    76  75  97 E3        29.89S
ROLLA          MOCLDY    77  71  82 SE9       29.94S
SEDALIA        PTCLDY    76  74  93 SE7       29.90S
WHITEMAN AFB   MOCLDY    75  75 100 SE5       29.87S
WARRENSBURG    CLOUDY    75  70  83 E5        29.88S
OSAGE BEACH    MOCLDY    76  71  85 SE3       29.92R

$$
MOZ051-052-059>065-160500-
...EAST CENTRAL MISSOURI...

CITY           SKY/WX    TMP DP  RH WIND       PRES   REMARKS
ST LOUIS INTL  PTCLDY    82  71  69 S14       29.93S
SPIRIT OF STL  CLOUDY    80  71  74 S6        29.92R
ST CHARLES     CLEAR     74  70  87 SE6       29.91R

$$
MOZ072>076-082>087-097>100-106>115-160500-
...SOUTH CENTRAL AND SOUTHEAST MISSOURI...

CITY           SKY/WX    TMP DP  RH WIND       PRES   REMARKS
CAPE GIRARDEAU CLEAR     73  71  93 S3        29.96R
FARMINGTON     PTCLDY    74  72  93 SE5       29.98R
POPLAR BLUFF   MOCLDY    74  73  97 CALM      29.94
WEST PLAINS    CLOUDY    75  71  87 S7        29.97R

$$



USA.gov is the U.S. government's official web portal to all federal, state and local government web resources and services.